Total_Precipitation_Accumulation
0.00 0.00 0.00 0.00 0.00 0.00 0.00 0.00 0.00 0.00 0.00 0.00 0.00 0.00 0.00 0.00 0.00 0.00 0.00 0.00 0.00 0.00 0.00 0.00 0.00 0.00 0.00 0.00 0.00 0.00 0.00 0.00 0.00 0.00 0.00 0.00 0.00 0.00 0.00 0.00 0.00 0.00 0.00 0.00 0.00 0.00 0.00 0.00 0.00 0.00 0.01 0.01 0.02 0.02 0.02 0.03 0.03 0.03 0.03 0.03 0.02 0.01 0.01 0.01 0.01 0.01 0.01 0.01 0.00 0.00 0.00 0.01 0.01 0.00 0.03 0.02 0.06 0.07 0.10 0.11 0.09 0.15 0.16 0.27 0.18 0.18
0.00 0.00 0.00 0.00 0.00 0.00 0.00 0.00 0.00 0.00 0.00 0.00 0.00 0.00 0.00 0.00 0.00 0.00 0.00 0.00 0.00 0.00 0.00 0.00 0.00 0.00 0.00 0.00 0.00 0.00 0.00 0.00 0.00 0.00 0.00 0.00 0.00 0.00 0.00 0.00 0.00 0.00 0.00 0.00 0.00 0.00 0.00 0.00 0.00 0.01 0.01 0.02 0.03 0.03 0.03 0.04 0.03 0.04 0.03 0.03 0.02 0.01 0.00 0.00 0.01 0.01 0.01 0.01 0.02 0.03 0.02 0.01 0.01 0.00 0.00 0.01 0.01 0.02 0.03 0.03 0.05 0.05 0.06 0.08 0.10 0.10
0.00 0.00 0.00 0.00 0.00 0.00 0.00 0.00 0.00 0.00 0.00 0.00 0.00 0.00 0.00 0.00 0.00 0.00 0.00 0.00 0.00 0.00 0.00 0.00 0.00 0.00 0.00 0.00 0.00 0.00 0.00 0.00 0.00 0.00 0.00 0.00 0.00 0.00 0.00 0.00 0.00 0.00 0.00 0.00 0.00 0.00 0.00 0.01 0.01 0.02 0.02 0.03 0.03 0.03 0.04 0.04 0.04 0.03 0.03 0.02 0.01 0.01 0.01 0.01 0.01 0.01 0.01 0.01 0.00 0.01 0.01 0.01 0.01 0.01 0.00 0.01 0.01 0.02 0.03 0.04 0.04 0.06 0.07 0.07 0.07 0.07
0.00 0.00 0.00 0.00 0.00 0.00 0.00 0.00 0.00 0.00 0.00 0.00 0.00 0.00 0.00 0.00 0.00 0.00 0.00 0.00 0.00 0.00 0.00 0.00 0.00 0.00 0.00 0.00 0.00 0.00 0.00 0.00 0.00 0.00 0.00 0.00 0.00 0.00 0.00 0.00 0.00 0.00 0.00 0.00 0.00 0.01 0.01 0.02 0.02 0.03 0.03 0.04 0.04 0.04 0.04 0.04 0.04 0.03 0.03 0.02 0.01 0.01 0.01 0.01 0.01 0.01 0.01 0.02 0.03 0.01 0.01 0.01 0.02 0.02 0.01 0.02 0.01 0.01 0.02 0.03 0.04 0.05 0.08 0.09 0.09 0.09
0.00 0.00 0.00 0.00 0.00 0.00 0.00 0.00 0.00 0.00 0.00 0.00 0.00 0.00 0.00 0.00 0.00 0.00 0.00 0.00 0.00 0.00 0.00 0.00 0.00 0.00 0.00 0.00 0.00 0.00 0.00 0.00 0.00 0.00 0.00 0.00 0.00 0.00 0.00 0.00 0.00 0.00 0.00 0.01 0.01 0.02 0.03 0.03 0.04 0.04 0.05 0.05 0.06 0.05 0.05 0.05 0.04 0.03 0.02 0.01 0.01 0.02 0.01 0.01 0.01 0.01 0.01 0.00 0.01 0.00 0.01 0.02 0.02 0.01 0.01 0.01 0.02 0.02 0.03 0.04 0.05 0.05 0.06 0.07 0.08 0.09
0.00 0.00 0.00 0.00 0.00 0.00 0.00 0.00 0.00 0.00 0.00 0.00 0.00 0.00 0.00 0.00 0.00 0.00 0.00 0.00 0.00 0.00 0.00 0.00 0.00 0.00 0.00 0.00 0.00 0.00 0.00 0.00 0.00 0.00 0.00 0.00 0.00 0.00 0.00 0.00 0.00 0.00 0.01 0.02 0.02 0.03 0.06 0.05 0.06 0.07 0.07 0.07 0.07 0.06 0.05 0.04 0.03 0.03 0.02 0.01 0.02 0.03 0.01 0.01 0.00 0.02 0.01 0.01 0.03 0.01 0.02 0.02 0.02 0.02 0.02 0.03 0.05 0.04 0.04 0.04 0.04 0.07 0.05 0.06 0.08 0.09
0.00 0.00 0.00 0.00 0.00 0.00 0.00 0.00 0.00 0.00 0.00 0.00 0.00 0.00 0.00 0.00 0.00 0.00 0.00 0.00 0.00 0.00 0.00 0.00 0.00 0.00 0.00 0.00 0.00 0.00 0.00 0.00 0.00 0.00 0.00 0.00 0.00 0.00 0.00 0.00 0.01 0.01 0.02 0.02 0.03 0.06 0.06 0.08 0.09 0.09 0.07 0.06 0.05 0.04 0.02 0.02 0.03 0.02 0.02 0.02 0.01 0.02 0.01 0.01 0.00 0.01 0.02 0.04 0.03 0.01 0.02 0.05 0.06 0.07 0.03 0.02 0.02 0.03 0.03 0.03 0.03 0.03 0.04 0.05 0.08 0.08
0.00 0.00 0.00 0.00 0.00 0.00 0.00 0.00 0.00 0.00 0.00 0.00 0.00 0.00 0.00 0.00 0.00 0.00 0.00 0.00 0.00 0.00 0.00 0.00 0.00 0.00 0.00 0.00 0.00 0.00 0.00 0.00 0.00 0.00 0.00 0.00 0.00 0.00 0.00 0.01 0.01 0.02 0.03 0.03 0.04 0.07 0.07 0.08 0.08 0.06 0.04 0.03 0.04 0.03 0.03 0.03 0.02 0.02 0.01 0.00 0.02 0.01 0.01 0.01 0.02 0.04 0.02 0.01 0.01 0.02 0.02 0.02 0.03 0.04 0.04 0.02 0.02 0.02 0.02 0.04 0.04 0.03 0.03 0.04 0.05 0.07
0.00 0.00 0.00 0.00 0.00 0.00 0.00 0.00 0.00 0.00 0.00 0.00 0.00 0.00 0.00 0.00 0.00 0.00 0.00 0.00 0.00 0.00 0.00 0.00 0.00 0.00 0.00 0.00 0.00 0.00 0.00 0.00 0.00 0.00 0.00 0.00 0.00 0.00 0.01 0.02 0.02 0.02 0.02 0.03 0.06 0.08 0.06 0.05 0.05 0.05 0.05 0.04 0.04 0.03 0.02 0.03 0.01 0.02 0.00 0.00 0.01 0.05 0.03 0.01 0.00 0.03 0.00 0.01 0.01 0.01 0.01 0.02 0.03 0.04 0.04 0.03 0.03 0.03 0.03 0.03 0.03 0.02 0.03 0.03 0.05 0.07
0.00 0.00 0.00 0.00 0.00 0.00 0.00 0.00 0.00 0.00 0.00 0.00 0.00 0.00 0.00 0.00 0.00 0.00 0.00 0.00 0.00 0.00 0.00 0.00 0.00 0.00 0.00 0.00 0.00 0.00 0.00 0.00 0.00 0.00 0.00 0.00 0.00 0.01 0.02 0.02 0.02 0.03 0.06 0.06 0.06 0.07 0.09 0.04 0.05 0.03 0.02 0.02 0.03 0.02 0.02 0.02 0.01 0.01 0.00 0.00 0.01 0.04 0.01 0.01 0.00 0.00 0.01 0.01 0.02 0.03 0.03 0.04 0.03 0.03 0.02 0.02 0.02 0.02 0.02 0.02 0.01 0.02 0.02 0.03 0.04 0.06
0.00 0.00 0.00 0.00 0.00 0.00 0.00 0.00 0.00 0.00 0.00 0.00 0.00 0.00 0.00 0.00 0.00 0.00 0.00 0.00 0.00 0.00 0.00 0.00 0.00 0.00 0.00 0.00 0.00 0.00 0.00 0.00 0.00 0.00 0.00 0.01 0.02 0.02 0.02 0.04 0.04 0.03 0.07 0.07 0.05 0.06 0.05 0.03 0.03 0.03 0.02 0.01 0.01 0.00 0.00 0.01 0.01 0.04 0.00 0.01 0.00 0.00 0.01 0.01 0.01 0.01 0.01 0.02 0.02 0.02 0.02 0.02 0.03 0.03 0.03 0.03 0.02 0.02 0.02 0.02 0.02 0.02 0.02 0.03 0.04 0.05
0.00 0.00 0.00 0.00 0.00 0.00 0.00 0.00 0.00 0.00 0.00 0.00 0.00 0.00 0.00 0.00 0.00 0.00 0.00 0.00 0.00 0.00 0.00 0.00 0.00 0.00 0.00 0.00 0.00 0.00 0.00 0.00 0.00 0.00 0.01 0.04 0.04 0.04 0.06 0.05 0.04 0.06 0.05 0.07 0.05 0.05 0.04 0.02 0.03 0.03 0.02 0.02 0.01 0.00 0.00 0.00 0.01 0.02 0.01 0.00 0.01 0.02 0.01 0.01 0.02 0.03 0.02 0.02 0.02 0.02 0.03 0.03 0.05 0.04 0.04 0.05 0.04 0.03 0.03 0.03 0.03 0.03 0.02 0.03 0.03 0.04
0.00 0.00 0.00 0.00 0.00 0.00 0.00 0.00 0.00 0.00 0.00 0.00 0.00 0.00 0.00 0.00 0.00 0.00 0.00 0.00 0.00 0.00 0.00 0.00 0.00 0.00 0.00 0.00 0.00 0.00 0.00 0.00 0.00 0.01 0.03 0.05 0.05 0.06 0.05 0.06 0.05 0.08 0.05 0.04 0.04 0.04 0.04 0.02 0.02 0.02 0.00 0.01 0.01 0.00 0.00 0.00 0.02 0.01 0.01 0.03 0.01 0.01 0.01 0.04 0.03 0.02 0.02 0.01 0.02 0.03 0.02 0.02 0.02 0.02 0.04 0.06 0.04 0.04 0.05 0.04 0.04 0.04 0.05 0.05 0.05 0.06
0.00 0.00 0.00 0.00 0.00 0.00 0.00 0.00 0.00 0.00 0.00 0.00 0.00 0.00 0.00 0.00 0.00 0.00 0.00 0.00 0.00 0.00 0.00 0.00 0.00 0.00 0.00 0.00 0.00 0.00 0.00 0.00 0.00 0.01 0.04 0.04 0.06 0.09 0.06 0.06 0.07 0.05 0.02 0.03 0.03 0.03 0.01 0.01 0.01 0.01 0.01 0.00 0.01 0.00 0.00 0.01 0.02 0.02 0.02 0.02 0.03 0.03 0.02 0.03 0.02 0.01 0.01 0.01 0.02 0.01 0.01 0.01 0.02 0.02 0.02 0.04 0.05 0.05 0.05 0.05 0.06 0.07 0.10 0.10 0.09 0.07
0.00 0.00 0.00 0.00 0.00 0.00 0.00 0.00 0.00 0.00 0.00 0.00 0.00 0.00 0.00 0.00 0.00 0.00 0.00 0.00 0.00 0.00 0.00 0.00 0.00 0.00 0.00 0.00 0.00 0.00 0.00 0.00 0.00 0.03 0.05 0.07 0.05 0.02 0.04 0.05 0.03 0.02 0.02 0.02 0.02 0.02 0.03 0.01 0.01 0.01 0.00 0.01 0.01 0.01 0.01 0.01 0.03 0.03 0.03 0.04 0.03 0.02 0.01 0.02 0.01 0.01 0.01 0.01 0.01 0.00 0.01 0.02 0.03 0.01 0.01 0.01 0.02 0.03 0.04 0.06 0.10 0.09 0.08 0.09 0.07 0.06
0.00 0.00 0.00 0.00 0.00 0.00 0.00 0.00 0.00 0.00 0.00 0.00 0.00 0.00 0.00 0.00 0.00 0.00 0.00 0.00 0.00 0.00 0.00 0.00 0.00 0.00 0.00 0.00 0.00 0.00 0.00 0.00 0.01 0.04 0.05 0.20 0.14 0.05 0.05 0.04 0.03 0.03 0.03 0.02 0.02 0.01 0.01 0.00 0.01 0.02 0.01 0.01 0.02 0.02 0.02 0.02 0.03 0.03 0.04 0.02 0.01 0.01 0.01 0.01 0.01 0.01 0.01 0.00 0.00 0.00 0.00 0.01 0.01 0.02 0.02 0.02 0.02 0.02 0.04 0.06 0.08 0.07 0.07 0.07 0.07 0.07
0.00 0.00 0.00 0.00 0.00 0.00 0.00 0.00 0.00 0.00 0.00 0.00 0.00 0.00 0.00 0.00 0.00 0.00 0.00 0.00 0.00 0.00 0.00 0.00 0.00 0.00 0.00 0.00 0.00 0.00 0.00 0.01 0.03 0.05 0.17 0.19 0.14 0.08 0.07 0.08 0.04 0.03 0.02 0.01 0.02 0.02 0.02 0.01 0.01 0.02 0.01 0.02 0.02 0.03 0.03 0.03 0.05 0.05 0.03 0.01 0.01 0.01 0.01 0.02 0.01 0.01 0.01 0.00 0.00 0.00 0.01 0.01 0.01 0.01 0.02 0.02 0.02 0.04 0.04 0.04 0.05 0.07 0.06 0.06 0.05 0.06
0.00 0.00 0.00 0.00 0.00 0.00 0.00 0.00 0.00 0.00 0.00 0.00 0.00 0.00 0.00 0.00 0.00 0.00 0.00 0.00 0.00 0.00 0.00 0.00 0.00 0.00 0.00 0.00 0.01 0.01 0.02 0.04 0.06 0.17 0.32 0.10 0.14 0.12 0.09 0.06 0.04 0.02 0.02 0.01 0.02 0.01 0.02 0.01 0.01 0.02 0.01 0.03 0.03 0.04 0.03 0.02 0.06 0.03 0.02 0.01 0.01 0.01 0.01 0.02 0.01 0.01 0.01 0.01 0.01 0.01 0.01 0.01 0.01 0.01 0.02 0.03 0.05 0.05 0.05 0.04 0.04 0.05 0.04 0.04 0.05 0.10
0.00 0.00 0.00 0.00 0.00 0.00 0.00 0.00 0.00 0.00 0.00 0.00 0.00 0.00 0.00 0.00 0.00 0.00 0.00 0.00 0.00 0.00 0.00 0.00 0.00 0.00 0.00 0.00 0.00 0.02 0.06 0.08 0.12 0.26 0.23 0.15 0.13 0.15 0.11 0.06 0.03 0.03 0.02 0.02 0.02 0.02 0.03 0.01 0.01 0.02 0.01 0.03 0.04 0.06 0.05 0.04 0.07 0.02 0.02 0.02 0.01 0.01 0.02 0.01 0.01 0.01 0.01 0.01 0.01 0.01 0.01 0.00 0.01 0.01 0.03 0.05 0.05 0.04 0.03 0.03 0.02 0.02 0.03 0.08 0.05 0.06
0.00 0.00 0.00 0.00 0.00 0.00 0.00 0.00 0.00 0.00 0.00 0.00 0.00 0.00 0.00 0.00 0.00 0.00 0.00 0.00 0.00 0.00 0.02 0.02 0.01 0.01 0.00 0.00 0.01 0.05 0.08 0.10 0.19 0.29 0.14 0.12 0.14 0.08 0.06 0.03 0.03 0.03 0.02 0.01 0.02 0.04 0.05 0.01 0.01 0.03 0.03 0.05 0.05 0.04 0.02 0.04 0.04 0.03 0.02 0.01 0.01 0.01 0.02 0.01 0.01 0.01 0.01 0.01 0.01 0.00 0.00 0.00 0.01 0.03 0.04 0.03 0.02 0.02 0.02 0.01 0.01 0.03 0.11 0.11 0.09 0.07
0.00 0.00 0.00 0.00 0.00 0.00 0.00 0.00 0.00 0.00 0.00 0.00 0.00 0.00 0.00 0.00 0.00 0.00 0.00 0.00 0.00 0.01 0.02 0.03 0.05 0.01 0.00 0.01 0.03 0.06 0.07 0.24 0.27 0.21 0.11 0.11 0.08 0.05 0.03 0.02 0.02 0.02 0.02 0.02 0.02 0.04 0.04 0.01 0.03 0.03 0.03 0.06 0.05 0.04 0.03 0.04 0.04 0.03 0.02 0.02 0.01 0.01 0.03 0.01 0.01 0.01 0.01 0.01 0.00 0.01 0.01 0.01 0.03 0.03 0.02 0.01 0.01 0.01 0.02 0.02 0.04 0.06 0.07 0.09 0.10 0.12
0.00 0.00 0.00 0.00 0.00 0.00 0.00 0.00 0.00 0.00 0.00 0.00 0.00 0.00 0.00 0.00 0.00 0.00 0.00 0.00 0.00 0.01 0.02 0.05 0.06 0.02 0.00 0.01 0.03 0.05 0.08 0.16 0.14 0.11 0.07 0.04 0.03 0.02 0.02 0.02 0.01 0.01 0.01 0.02 0.04 0.06 0.02 0.01 0.02 0.03 0.02 0.04 0.03 0.04 0.02 0.03 0.05 0.04 0.03 0.01 0.01 0.01 0.03 0.01 0.01 0.01 0.01 0.01 0.01 0.01 0.01 0.03 0.02 0.01 0.01 0.01 0.01 0.05 0.03 0.04 0.05 0.05 0.06 0.09 0.11 0.11
0.00 0.00 0.00 0.00 0.00 0.00 0.00 0.00 0.00 0.00 0.00 0.00 0.00 0.00 0.00 0.00 0.00 0.00 0.01 0.00 0.00 0.00 0.00 0.01 0.09 0.06 0.00 0.01 0.02 0.03 0.11 0.09 0.09 0.06 0.02 0.03 0.03 0.03 0.02 0.02 0.01 0.01 0.01 0.02 0.01 0.04 0.02 0.03 0.03 0.03 0.04 0.08 0.07 0.05 0.04 0.05 0.05 0.03 0.02 0.01 0.02 0.01 0.02 0.01 0.01 0.01 0.01 0.01 0.01 0.02 0.02 0.02 0.01 0.02 0.02 0.01 0.04 0.05 0.04 0.03 0.04 0.04 0.09 0.09 0.09 0.10
0.00 0.00 0.00 0.00 0.00 0.00 0.00 0.00 0.00 0.00 0.00 0.00 0.00 0.00 0.00 0.00 0.00 0.00 0.00 0.00 0.01 0.01 0.03 0.06 0.14 0.03 0.01 0.02 0.00 0.04 0.10 0.09 0.11 0.09 0.10 0.12 0.07 0.04 0.03 0.04 0.01 0.01 0.02 0.01 0.03 0.05 0.02 0.03 0.03 0.03 0.02 0.05 0.04 0.03 0.03 0.07 0.05 0.03 0.02 0.01 0.02 0.02 0.02 0.01 0.01 0.01 0.01 0.01 0.02 0.02 0.01 0.01 0.04 0.01 0.03 0.04 0.09 0.03 0.03 0.06 0.08 0.06 0.06 0.06 0.07 0.09
0.00 0.00 0.00 0.00 0.00 0.00 0.00 0.00 0.00 0.00 0.00 0.00 0.00 0.00 0.00 0.00 0.00 0.00 0.00 0.00 0.01 0.02 0.02 0.08 0.19 0.03 0.01 0.00 0.00 0.07 0.03 0.09 0.05 0.04 0.04 0.05 0.03 0.03 0.02 0.02 0.02 0.03 0.03 0.04 0.04 0.06 0.03 0.03 0.03 0.02 0.04 0.06 0.06 0.05 0.05 0.07 0.04 0.03 0.02 0.01 0.02 0.03 0.02 0.01 0.01 0.01 0.02 0.02 0.02 0.02 0.01 0.02 0.02 0.02 0.03 0.06 0.03 0.05 0.04 0.04 0.05 0.05 0.08 0.11 0.12 0.14
0.00 0.00 0.00 0.00 0.00 0.00 0.00 0.00 0.00 0.00 0.00 0.00 0.00 0.00 0.00 0.00 0.00 0.00 0.00 0.01 0.03 0.02 0.04 0.07 0.07 0.03 0.01 0.02 0.06 0.06 0.05 0.08 0.07 0.04 0.03 0.03 0.04 0.03 0.03 0.02 0.03 0.04 0.04 0.03 0.06 0.04 0.05 0.06 0.05 0.03 0.05 0.06 0.05 0.07 0.05 0.07 0.04 0.03 0.02 0.02 0.03 0.03 0.01 0.01 0.01 0.02 0.02 0.02 0.02 0.02 0.01 0.02 0.02 0.03 0.05 0.04 0.03 0.05 0.05 0.06 0.08 0.08 0.07 0.10 0.09 0.11
0.00 0.00 0.00 0.00 0.00 0.00 0.00 0.00 0.00 0.00 0.00 0.00 0.00 0.00 0.00 0.00 0.00 0.00 0.00 0.01 0.05 0.04 0.08 0.06 0.16 0.04 0.04 0.10 0.12 0.08 0.11 0.10 0.08 0.05 0.04 0.03 0.03 0.03 0.03 0.03 0.04 0.04 0.04 0.04 0.08 0.06 0.05 0.03 0.03 0.05 0.07 0.08 0.06 0.08 0.05 0.06 0.03 0.03 0.02 0.03 0.02 0.02 0.01 0.01 0.02 0.02 0.02 0.02 0.02 0.02 0.02 0.02 0.03 0.04 0.06 0.05 0.04 0.04 0.07 0.08 0.06 0.05 0.08 0.06 0.09 0.09
0.00 0.00 0.00 0.00 0.00 0.00 0.00 0.00 0.00 0.00 0.00 0.00 0.00 0.00 0.00 0.00 0.00 0.00 0.00 0.02 0.02 0.07 0.12 0.04 0.03 0.11 0.10 0.15 0.13 0.11 0.12 0.11 0.07 0.05 0.04 0.03 0.03 0.03 0.04 0.05 0.11 0.04 0.06 0.06 0.06 0.05 0.04 0.03 0.03 0.04 0.05 0.08 0.05 0.05 0.05 0.05 0.03 0.04 0.02 0.02 0.01 0.01 0.01 0.02 0.02 0.02 0.02 0.02 0.02 0.02 0.03 0.03 0.03 0.04 0.04 0.04 0.07 0.06 0.06 0.06 0.06 0.08 0.07 0.10 0.10 0.14
0.00 0.00 0.00 0.00 0.00 0.00 0.00 0.00 0.00 0.00 0.00 0.00 0.00 0.00 0.00 0.00 0.00 0.00 0.01 0.01 0.03 0.11 0.10 0.04 0.05 0.08 0.10 0.14 0.13 0.11 0.11 0.11 0.06 0.03 0.02 0.02 0.04 0.05 0.06 0.07 0.08 0.05 0.05 0.04 0.08 0.05 0.03 0.03 0.04 0.05 0.05 0.06 0.05 0.05 0.06 0.04 0.03 0.03 0.02 0.02 0.01 0.01 0.02 0.02 0.02 0.02 0.02 0.02 0.03 0.03 0.03 0.03 0.04 0.11 0.04 0.12 0.07 0.06 0.05 0.05 0.05 0.07 0.07 0.08 0.08 0.11
0.00 0.00 0.00 0.00 0.00 0.00 0.00 0.00 0.00 0.00 0.00 0.00 0.00 0.00 0.00 0.00 0.00 0.00 0.01 0.01 0.02 0.02 0.02 0.04 0.06 0.08 0.10 0.12 0.10 0.09 0.08 0.06 0.03 0.02 0.03 0.03 0.06 0.09 0.08 0.09 0.05 0.06 0.05 0.07 0.08 0.05 0.03 0.05 0.06 0.08 0.07 0.05 0.06 0.05 0.06 0.05 0.04 0.03 0.02 0.01 0.01 0.02 0.02 0.02 0.02 0.02 0.02 0.03 0.03 0.03 0.08 0.03 0.05 0.10 0.06 0.05 0.06 0.08 0.05 0.03 0.05 0.07 0.09 0.07 0.06 0.06
0.00 0.00 0.01 0.00 0.00 0.00 0.00 0.00 0.00 0.00 0.00 0.00 0.00 0.00 0.00 0.00 0.00 0.00 0.01 0.01 0.01 0.02 0.06 0.06 0.10 0.11 0.08 0.09 0.10 0.07 0.05 0.04 0.04 0.05 0.06 0.03 0.03 0.07 0.07 0.08 0.06 0.06 0.06 0.08 0.08 0.05 0.04 0.07 0.07 0.08 0.07 0.07 0.06 0.06 0.08 0.06 0.05 0.02 0.01 0.02 0.03 0.03 0.03 0.02 0.02 0.02 0.03 0.04 0.04 0.04 0.05 0.07 0.07 0.06 0.04 0.03 0.03 0.03 0.05 0.04 0.04 0.06 0.08 0.10 0.10 0.09
0.00 0.00 0.00 0.00 0.00 0.00 0.00 0.00 0.00 0.00 0.00 0.00 0.00 0.00 0.00 0.00 0.00 0.01 0.01 0.01 0.01 0.04 0.07 0.12 0.14 0.14 0.11 0.07 0.09 0.06 0.05 0.04 0.05 0.02 0.07 0.06 0.08 0.09 0.09 0.09 0.07 0.06 0.06 0.12 0.11 0.06 0.09 0.09 0.10 0.09 0.10 0.07 0.07 0.07 0.09 0.05 0.03 0.02 0.02 0.03 0.04 0.03 0.03 0.02 0.03 0.04 0.08 0.06 0.06 0.08 0.07 0.08 0.04 0.03 0.03 0.02 0.02 0.03 0.04 0.05 0.05 0.05 0.06 0.07 0.11 0.10
0.00 0.00 0.00 0.00 0.00 0.00 0.00 0.00 0.00 0.00 0.00 0.00 0.00 0.00 0.00 0.00 0.00 0.00 0.00 0.00 0.01 0.02 0.09 0.15 0.14 0.08 0.07 0.07 0.06 0.07 0.06 0.04 0.05 0.03 0.05 0.06 0.08 0.14 0.13 0.12 0.08 0.05 0.08 0.13 0.09 0.09 0.11 0.12 0.13 0.11 0.09 0.07 0.08 0.08 0.07 0.03 0.02 0.02 0.03 0.04 0.04 0.03 0.04 0.04 0.06 0.05 0.04 0.04 0.04 0.05 0.10 0.04 0.03 0.03 0.02 0.03 0.03 0.05 0.07 0.07 0.07 0.07 0.08 0.10 0.11 0.12
0.00 0.00 0.00 0.00 0.00 0.00 0.00 0.00 0.00 0.00 0.00 0.00 0.00 0.00 0.00 0.01 0.01 0.01 0.01 0.01 0.01 0.02 0.03 0.03 0.05 0.07 0.08 0.09 0.09 0.07 0.05 0.04 0.02 0.01 0.04 0.05 0.07 0.11 0.08 0.06 0.08 0.08 0.09 0.11 0.10 0.13 0.13 0.12 0.13 0.11 0.11 0.10 0.10 0.08 0.04 0.02 0.03 0.03 0.04 0.04 0.04 0.04 0.07 0.06 0.05 0.05 0.05 0.05 0.05 0.06 0.06 0.04 0.04 0.03 0.03 0.03 0.05 0.07 0.08 0.11 0.09 0.09 0.14 0.13 0.13 0.16
0.00 0.00 0.00 0.00 0.00 0.00 0.00 0.00 0.00 0.00 0.00 0.00 0.00 0.00 0.00 0.00 0.00 0.01 0.02 0.03 0.02 0.03 0.04 0.09 0.11 0.10 0.08 0.08 0.07 0.05 0.03 0.03 0.02 0.03 0.03 0.03 0.05 0.05 0.09 0.05 0.11 0.07 0.11 0.10 0.11 0.14 0.16 0.14 0.13 0.13 0.14 0.12 0.08 0.05 0.03 0.03 0.04 0.05 0.04 0.04 0.06 0.07 0.06 0.04 0.04 0.05 0.05 0.05 0.06 0.07 0.04 0.05 0.04 0.04 0.05 0.07 0.06 0.08 0.08 0.09 0.10 0.10 0.13 0.16 0.16 0.17
0.00 0.00 0.00 0.00 0.00 0.00 0.00 0.00 0.00 0.00 0.00 0.00 0.00 0.00 0.00 0.01 0.02 0.03 0.08 0.05 0.02 0.02 0.05 0.07 0.09 0.08 0.05 0.05 0.06 0.05 0.05 0.03 0.03 0.02 0.04 0.02 0.03 0.06 0.05 0.04 0.03 0.06 0.08 0.11 0.18 0.17 0.16 0.15 0.16 0.18 0.15 0.09 0.05 0.05 0.04 0.06 0.06 0.06 0.06 0.11 0.08 0.04 0.04 0.05 0.06 0.06 0.07 0.08 0.08 0.06 0.06 0.06 0.06 0.06 0.06 0.07 0.11 0.09 0.12 0.10 0.10 0.14 0.15 0.19 0.20 0.22
0.00 0.00 0.00 0.00 0.00 0.00 0.00 0.00 0.00 0.00 0.00 0.00 0.00 0.01 0.01 0.02 0.03 0.05 0.06 0.05 0.01 0.07 0.06 0.07 0.07 0.06 0.05 0.05 0.05 0.05 0.05 0.05 0.05 0.05 0.03 0.03 0.04 0.03 0.06 0.02 0.04 0.06 0.08 0.13 0.14 0.15 0.14 0.15 0.15 0.13 0.09 0.05 0.05 0.05 0.07 0.07 0.09 0.10 0.13 0.10 0.05 0.05 0.06 0.07 0.08 0.09 0.09 0.11 0.10 0.09 0.05 0.06 0.07 0.08 0.08 0.12 0.13 0.14 0.12 0.19 0.19 0.20 0.27 0.26 0.27 0.28
0.00 0.00 0.00 0.00 0.00 0.00 0.00 0.00 0.00 0.00 0.01 0.01 0.01 0.01 0.01 0.01 0.02 0.03 0.04 0.05 0.01 0.07 0.04 0.05 0.07 0.10 0.06 0.06 0.07 0.07 0.07 0.13 0.16 0.10 0.07 0.04 0.04 0.06 0.03 0.02 0.03 0.05 0.08 0.12 0.08 0.11 0.16 0.16 0.12 0.08 0.05 0.04 0.05 0.07 0.07 0.07 0.14 0.17 0.10 0.08 0.06 0.07 0.07 0.09 0.09 0.09 0.10 0.14 0.07 0.06 0.06 0.08 0.11 0.12 0.12 0.15 0.17 0.19 0.20 0.19 0.28 0.24 0.25 0.34 0.32 0.31
0.00 0.00 0.00 0.00 0.00 0.00 0.00 0.00 0.00 0.01 0.00 0.01 0.01 0.01 0.01 0.01 0.02 0.02 0.03 0.04 0.03 0.05 0.05 0.05 0.07 0.06 0.07 0.09 0.09 0.09 0.17 0.27 0.22 0.16 0.09 0.05 0.06 0.02 0.03 0.02 0.03 0.06 0.08 0.06 0.10 0.14 0.11 0.09 0.08 0.06 0.04 0.05 0.08 0.09 0.10 0.13 0.14 0.10 0.10 0.08 0.08 0.08 0.11 0.11 0.09 0.11 0.12 0.10 0.07 0.07 0.09 0.10 0.11 0.13 0.16 0.17 0.24 0.22 0.22 0.23 0.27 0.26 0.29 0.32 0.31 0.28
0.00 0.00 0.00 0.00 0.00 0.00 0.00 0.01 0.01 0.00 0.01 0.01 0.01 0.01 0.01 0.01 0.01 0.02 0.08 0.12 0.11 0.06 0.05 0.05 0.06 0.07 0.08 0.08 0.08 0.14 0.23 0.27 0.20 0.15 0.06 0.04 0.03 0.03 0.02 0.03 0.05 0.06 0.05 0.06 0.13 0.12 0.10 0.07 0.05 0.04 0.05 0.09 0.09 0.12 0.16 0.12 0.10 0.12 0.10 0.09 0.13 0.15 0.12 0.11 0.11 0.11 0.11 0.10 0.17 0.11 0.11 0.10 0.15 0.16 0.17 0.25 0.16 0.18 0.25 0.25 0.29 0.31 0.33 0.29 0.27 0.32
0.00 0.00 0.00 0.00 0.00 0.00 0.00 0.01 0.00 0.01 0.00 0.01 0.01 0.01 0.01 0.01 0.03 0.13 0.26 0.24 0.07 0.04 0.04 0.03 0.05 0.05 0.07 0.08 0.13 0.16 0.13 0.15 0.14 0.07 0.04 0.04 0.03 0.02 0.02 0.04 0.07 0.06 0.08 0.10 0.11 0.06 0.06 0.05 0.07 0.07 0.08 0.11 0.11 0.14 0.13 0.12 0.14 0.14 0.12 0.17 0.15 0.12 0.10 0.10 0.11 0.14 0.17 0.16 0.16 0.11 0.11 0.19 0.20 0.20 0.14 0.16 0.19 0.21 0.26 0.32 0.33 0.26 0.27 0.32 0.40 0.52
0.00 0.00 0.00 0.00 0.00 0.00 0.00 0.01 0.01 0.01 0.01 0.01 0.01 0.01 0.01 0.06 0.22 0.35 0.16 0.03 0.02 0.03 0.03 0.07 0.08 0.06 0.07 0.09 0.08 0.09 0.09 0.06 0.07 0.04 0.04 0.04 0.03 0.03 0.04 0.03 0.03 0.05 0.07 0.09 0.07 0.06 0.05 0.06 0.06 0.06 0.09 0.09 0.15 0.11 0.11 0.14 0.18 0.21 0.18 0.17 0.13 0.11 0.11 0.10 0.15 0.18 0.14 0.10 0.10 0.10 0.10 0.12 0.19 0.14 0.18 0.16 0.23 0.29 0.34 0.25 0.24 0.28 0.35 0.52 0.59 0.59
0.00 0.00 0.00 0.00 0.00 0.00 0.00 0.02 0.04 0.08 0.05 0.00 0.00 0.02 0.02 0.09 0.13 0.04 0.02 0.02 0.02 0.01 0.02 0.04 0.04 0.05 0.06 0.07 0.07 0.09 0.06 0.06 0.06 0.05 0.05 0.04 0.04 0.06 0.04 0.03 0.07 0.10 0.09 0.06 0.06 0.04 0.08 0.06 0.06 0.08 0.11 0.11 0.08 0.09 0.12 0.17 0.21 0.21 0.16 0.15 0.12 0.10 0.11 0.15 0.22 0.20 0.14 0.13 0.12 0.09 0.14 0.14 0.14 0.17 0.24 0.21 0.26 0.33 0.33 0.26 0.27 0.36 0.47 0.53 0.60 0.66
0.00 0.00 0.00 0.00 0.00 0.02 0.02 0.03 0.03 0.01 0.00 0.00 0.00 0.02 0.01 0.02 0.04 0.01 0.01 0.01 0.01 0.01 0.02 0.03 0.05 0.06 0.04 0.04 0.06 0.07 0.08 0.08 0.08 0.07 0.07 0.07 0.08 0.06 0.05 0.07 0.09 0.09 0.07 0.07 0.08 0.07 0.08 0.10 0.09 0.13 0.13 0.06 0.07 0.13 0.12 0.22 0.24 0.20 0.17 0.14 0.10 0.11 0.20 0.20 0.17 0.13 0.15 0.13 0.11 0.11 0.14 0.18 0.14 0.16 0.19 0.23 0.29 0.34 0.36 0.36 0.43 0.47 0.48 0.55 0.69 0.73
0.00 0.00 0.00 0.00 0.00 0.00 0.01 0.00 0.00 0.00 0.00 0.00 0.00 0.00 0.00 0.00 0.00 0.00 0.00 0.00 0.01 0.02 0.02 0.04 0.06 0.04 0.03 0.04 0.06 0.08 0.09 0.10 0.09 0.08 0.09 0.11 0.09 0.07 0.09 0.13 0.12 0.09 0.09 0.10 0.09 0.07 0.09 0.11 0.16 0.13 0.08 0.08 0.11 0.08 0.13 0.17 0.21 0.20 0.18 0.14 0.12 0.21 0.29 0.22 0.18 0.16 0.16 0.14 0.12 0.16 0.12 0.14 0.14 0.16 0.20 0.25 0.36 0.43 0.45 0.51 0.51 0.54 0.50 0.61 0.67 0.65
0.00 0.00 0.00 0.00 0.00 0.00 0.00 0.00 0.00 0.00 0.00 0.00 0.00 0.00 0.00 0.00 0.00 0.00 0.00 0.00 0.01 0.01 0.03 0.05 0.02 0.02 0.03 0.04 0.06 0.08 0.11 0.10 0.10 0.10 0.10 0.08 0.07 0.09 0.12 0.12 0.08 0.09 0.09 0.09 0.09 0.07 0.10 0.15 0.13 0.08 0.11 0.12 0.10 0.14 0.12 0.11 0.11 0.17 0.17 0.17 0.22 0.26 0.30 0.22 0.22 0.20 0.18 0.14 0.13 0.13 0.13 0.14 0.14 0.19 0.27 0.31 0.35 0.43 0.49 0.53 0.55 0.57 0.59 0.61 0.62 0.58
0.00 0.00 0.00 0.00 0.00 0.00 0.00 0.00 0.00 0.00 0.00 0.00 0.00 0.00 0.00 0.00 0.00 0.00 0.00 0.00 0.01 0.03 0.03 0.01 0.01 0.02 0.04 0.02 0.05 0.08 0.10 0.10 0.10 0.11 0.09 0.09 0.14 0.14 0.14 0.13 0.11 0.12 0.12 0.11 0.10 0.14 0.16 0.13 0.11 0.14 0.19 0.19 0.17 0.14 0.10 0.10 0.10 0.12 0.16 0.23 0.24 0.26 0.25 0.24 0.24 0.24 0.20 0.16 0.14 0.13 0.13 0.16 0.24 0.27 0.29 0.30 0.34 0.40 0.44 0.45 0.52 0.57 0.63 0.66 0.68 0.64
0.00 0.00 0.00 0.00 0.01 0.01 0.01 0.00 0.00 0.00 0.00 0.00 0.00 0.00 0.00 0.00 0.00 0.00 0.01 0.01 0.02 0.01 0.01 0.01 0.01 0.02 0.02 0.03 0.05 0.08 0.10 0.09 0.10 0.10 0.11 0.16 0.22 0.16 0.13 0.13 0.13 0.10 0.11 0.10 0.10 0.18 0.13 0.10 0.17 0.24 0.23 0.20 0.18 0.11 0.10 0.09 0.11 0.13 0.15 0.19 0.22 0.25 0.26 0.30 0.29 0.31 0.21 0.16 0.14 0.15 0.16 0.20 0.26 0.32 0.33 0.34 0.36 0.42 0.47 0.52 0.57 0.63 0.67 0.77 0.84 0.87
0.00 0.00 0.01 0.00 0.02 0.02 0.00 0.00 0.01 0.01 0.02 0.01 0.00 0.00 0.00 0.00 0.00 0.00 0.01 0.01 0.01 0.01 0.02 0.02 0.02 0.02 0.01 0.02 0.04 0.07 0.09 0.10 0.10 0.11 0.16 0.21 0.19 0.15 0.14 0.11 0.12 0.11 0.11 0.13 0.17 0.15 0.10 0.14 0.26 0.22 0.20 0.27 0.13 0.17 0.11 0.13 0.12 0.12 0.14 0.18 0.24 0.30 0.33 0.36 0.32 0.25 0.26 0.15 0.16 0.17 0.20 0.27 0.28 0.29 0.35 0.38 0.38 0.43 0.56 0.65 0.76 0.78 0.72 0.66 0.76 0.92
0.03 0.08 0.10 0.08 0.04 0.01 0.02 0.03 0.04 0.06 0.05 0.02 0.00 0.00 0.00 0.00 0.00 0.00 0.01 0.01 0.01 0.02 0.02 0.02 0.03 0.02 0.02 0.03 0.04 0.06 0.06 0.08 0.09 0.13 0.19 0.16 0.14 0.12 0.12 0.10 0.10 0.12 0.14 0.16 0.11 0.08 0.12 0.14 0.21 0.18 0.21 0.13 0.12 0.15 0.15 0.14 0.14 0.13 0.15 0.22 0.27 0.32 0.42 0.45 0.37 0.33 0.22 0.19 0.19 0.21 0.25 0.31 0.30 0.33 0.35 0.43 0.47 0.50 0.51 0.54 0.76 0.91 0.88 0.73 0.60 0.58
0.00 0.00 0.07 0.13 0.01 0.02 0.02 0.03 0.03 0.02 0.01 0.00 0.00 0.00 0.00 0.00 0.00 0.00 0.01 0.01 0.01 0.01 0.02 0.02 0.03 0.04 0.04 0.03 0.03 0.04 0.05 0.08 0.11 0.15 0.15 0.11 0.10 0.09 0.10 0.13 0.17 0.18 0.21 0.15 0.12 0.13 0.18 0.18 0.14 0.18 0.15 0.14 0.17 0.17 0.15 0.16 0.14 0.14 0.17 0.24 0.26 0.34 0.36 0.38 0.44 0.37 0.27 0.25 0.24 0.25 0.31 0.31 0.37 0.39 0.41 0.46 0.48 0.52 0.56 0.56 0.54 0.58 0.59 0.54 0.55 0.51